Lawrence, MA

1:23 PM EST on November 15, 2019 (GMT -0500)
Lawrence Municipal

Weather History for KLWM - August, 2019

Change the Weather History Date:

Friday, August 9, 2019

  Actual Average Record
Temperature  
Mean Temperature 73 °F -  
Max Temperature 82 °F 84 °F 96 °F (1949)
Min Temperature 64 °F 63 °F 51 °F (1999)
Cooling Degree Days 8    
Growing Degree Days 23 (Base 50)    
Moisture  
Dew Point 57 °F    
Average Humidity 59    
Maximum Humidity 84    
Minimum Humidity 39    
Precipitation  
Precipitation 0.00 in - - ()
Sea Level Pressure  
Sea Level Pressure 29.69 in    
Wind  
Wind Speed 9 mph (WSW)    
Max Wind Speed 16 mph    
Max Gust Speed 25 mph    
Visibility 10 miles    
Events      
Averages and records for this station are not official NWS values.
T = Trace of Precipitation, MM = Missing Value Source: NWS Daily Summary

Daily Weather History Graph

Daily Weather History Graph

Search for Another Location

Airport or City:

Astronomy

Aug. 09, 2019 Rise Set
Actual Time 5:44 AM EDT 7:55 PM EDT
Civil Twilight 5:13 AM EDT 8:26 PM EDT
Nautical Twilight 4:34 AM EDT 9:04 PM EDT
Astronomical Twilight 3:52 AM EDT 9:46 PM EDT
Moon 3:34 PM EDT (8/9) 12:39 AM EDT (8/9)
Length of Visible Light 15h 13m
Length of Day
14h 10m
Waxing Gibbous, 70% of the Moon is Illuminated
Aug 9
Waxing Gibbous
Aug 15
Full
Aug 23
Last Quarter
Aug 30
New
Sep 5
First Quarter

Hourly Weather History & Observations

Time (EDT) Temp. Heat Index Dew Point Humidity Pressure Visibility Wind Dir Wind Speed Gust Speed Precip Events Conditions
12:54 AM 70.0 °F - 60.1 °F 71% 29.63 in 10.0 mi SW 9.2 mph - N/A   Clear
1:54 AM 69.1 °F - 60.1 °F 73% 29.65 in 10.0 mi WSW 10.4 mph - N/A   Clear
2:54 AM 68.0 °F - 60.1 °F 76% 29.66 in 10.0 mi SW 6.9 mph - N/A   Clear
3:54 AM 64.9 °F - 60.1 °F 84% 29.66 in 10.0 mi SW 8.1 mph - N/A   Clear
4:54 AM 66.0 °F - 60.1 °F 81% 29.67 in 10.0 mi WSW 4.6 mph - N/A   Partly Cloudy
5:54 AM 64.9 °F - 60.1 °F 84% 29.68 in 10.0 mi South 4.6 mph - N/A   Clear
6:54 AM 66.0 °F - 61.0 °F 84% 29.69 in 10.0 mi SSW 3.5 mph - N/A   Partly Cloudy
7:54 AM 70.0 °F - 62.1 °F 76% 29.70 in 10.0 mi West 8.1 mph - N/A   Clear
8:54 AM 72.0 °F - 62.1 °F 71% 29.70 in 10.0 mi West 11.5 mph - N/A   Clear
9:54 AM 75.0 °F - 61.0 °F 62% 29.70 in 10.0 mi West 11.5 mph - N/A   Clear
10:54 AM 77.0 °F - 61.0 °F 58% 29.71 in 10.0 mi WNW 11.5 mph - N/A   Scattered Clouds
11:54 AM 78.1 °F - 57.9 °F 50% 29.71 in 10.0 mi WNW 11.5 mph - N/A   Partly Cloudy
12:54 PM 79.0 °F - 55.0 °F 44% 29.70 in 10.0 mi West 16.1 mph 25.3 mph N/A   Partly Cloudy
1:54 PM 80.6 °F 80.8 °F 57.2 °F 45% 29.69 in 10.0 mi West 10.4 mph 18.4 mph N/A   Clear
3:00 PM 82.4 °F 81.7 °F 55.4 °F 39% 29.68 in 10.0 mi WNW 11.5 mph 18.4 mph N/A   Scattered Clouds
4:00 PM 82.4 °F 81.7 °F 55.4 °F 39% 29.68 in 10.0 mi West 13.8 mph - N/A   Scattered Clouds
5:00 PM 80.6 °F 80.3 °F 53.6 °F 39% 29.67 in 10.0 mi West 11.5 mph 24.2 mph N/A   Clear
5:54 PM 80.6 °F 80.3 °F 53.6 °F 39% 29.68 in 10.0 mi West 12.7 mph - N/A   Clear
6:54 PM 79.0 °F - 54.0 °F 42% 29.69 in 10.0 mi WSW 9.2 mph 19.6 mph N/A   Clear
7:54 PM 75.9 °F - 53.1 °F 45% 29.71 in 10.0 mi West 8.1 mph - N/A   Clear
8:54 PM 73.0 °F - 53.1 °F 49% 29.72 in 10.0 mi WSW 9.2 mph - N/A   Clear
9:54 PM 72.0 °F - 53.1 °F 51% 29.74 in 10.0 mi West 5.8 mph - N/A   Clear
10:54 PM 70.0 °F - 52.0 °F 53% 29.74 in 10.0 mi West 6.9 mph - N/A   Clear
11:54 PM 68.0 °F - 52.0 °F 56% 29.74 in 10.0 mi WSW 8.1 mph - N/A   Clear